Regional Weather Roundup
Issued by NWS

Home | Current Version | Previous Version | Text Only | Print | Product List | Glossary Off
Versions: 1 2 3 4 5 6 7 8 9 10 11 12 13 14 15 16 17 18 19 20 21 22 23 24 25 26 27 28 29 30 31 32 33 34 35 36 37 38 39 40 41 42 43 44 45 46 47 48 49 50

000
ASUS43 KIND 291009
RWRIN

WEATHER ROUNDUP FOR INDIANA
NATIONAL WEATHER SERVICE INDIANAPOLIS IN
600 AM EDT WED JUL 29 2015

NOTE: "FAIR" INDICATES FEW OR NO CLOUDS BELOW 12,000 FEET WITH NO
SIGNIFICANT WEATHER AND/OR OBSTRUCTIONS TO VISIBILITY.

* - STATION DOES NOT REPORT WEATHER SUCH AS PRECIPITATION OR FOG.

+ - STATION NOT QUALITY CONTROLLED BY THE NATIONAL WEATHER SERVICE.
    USE DATA WITH CAUTION...ESPECIALLY DEWPOINT AND RELATIVE
    HUMIDITY OBSERVATIONS.

INZ001>003-010>013-019-020-291100-
NORTHWEST INDIANA

CITY           SKY/WX    TMP DP  RH WIND       PRES   REMARKS
GARY /AIRPORT/ MOCLDY    77  75  94 W10       29.93F
KNOX *+        CLOUDY    73  73 100 SW3       29.94R
LA PORTE +     CLOUDY    76  76 100 SW3       29.96R FOG
MICHIGAN CITY+ CLOUDY    75  73  94 S6        29.94S
MONTICELLO +   CLOUDY    75  75 100 W5        29.95R
RENSSELAER +   CLOUDY    75  75 100 SW6       29.95S
VALPARAISO     LGT RAIN  76  74  93 W3        29.94F

$$

LMZ046-743>745-291100-
SOUTHERN LAKE MICHIGAN

STATION/POSITION TIME  TEMP    WIND        PRES    WAVE
                       AIR SEA DIR/SP/G            HT
                 (UTC) (F)     (DEG/KT/KT) (MB)    (FT)
BURNS HARBOR     0900   75     230/  9/ 12 1014.2R
MICHIGAN CITY    0900   76     220/ 10/ 11   N/A
5NW MICH CITY    1000   75 74  230/  8/ 10   N/A     1

$$

INZ004-005-014>016-021>024-291100-
NORTH CENTRAL INDIANA

CITY           SKY/WX    TMP DP  RH WIND       PRES   REMARKS
GOSHEN         CLOUDY    73  68  84 SE5       29.95S
LOGANSPORT +   MOCLDY    72  68  88 S3        29.96S FOG
PERU/GRISSOM   PTCLDY    73  72  95 S3        29.95S
ROCHESTER +    CLOUDY    79  77  94 S5        29.95F
SOUTH BEND     CLOUDY    75  71  87 SW3       29.94F
WARSAW +       MOCLDY    72  70  94 CALM      29.95F

$$

INZ006>009-017-018-025>027-291100-
NORTHEAST INDIANA

CITY           SKY/WX    TMP DP  RH WIND       PRES   REMARKS
ANGOLA *+      CLEAR     70  63  78 CALM      29.97S
AUBURN +       MOCLDY    72  64  78 CALM      29.97S
FORT WAYNE     MOCLDY    72  70  93 S3        29.97R
HUNTINGTON +   PTCLDY    74  72  94 CALM      29.96S

$$

INZ028-029-035-036-043>045-051>053-291100-
WEST CENTRAL INDIANA

CITY           SKY/WX    TMP DP  RH WIND       PRES   REMARKS
CRAWFORDSVL +  MOCLDY    71  71 100 CALM        N/A  FOG
GREENCASTLE +  MOCLDY    73  70  88 CALM      29.99R FOG
LAFAYETTE      MOCLDY    74  73  97 W6        29.95S FOG
TERRE HAUTE    MOCLDY    77  74  90 CALM      29.96S

$$

INZ030>032-037>040-046>048-054>057-064-065-291100-
CENTRAL INDIANA

CITY           SKY/WX    TMP DP  RH WIND       PRES   REMARKS
FRANKFORT +    MOCLDY   N/A N/A N/A CALM      29.99S
INDIANAPOLIS   CLOUDY    75  72  90 S5        29.96S
-EAGLE CREEK   MOCLDY    75  73  93 S3        29.97R
KOKOMO *+      MOCLDY    72  70  94 S5        29.96F
MARION +       PTCLDY    70  70  99 CALM      29.97F FOG
MT COMFORT *+    N/A     70 N/A N/A CALM      29.99R VSB 1/4
SHELBYVILLE    FOG       74  71  91 CALM      29.97R VSB 3/4
ZIONSVILLE +   PTCLDY    73  70  91 CALM      29.98S FOG

$$

INZ033-034-041-042-049-050-058-059-291100-
EAST CENTRAL INDIANA

CITY           SKY/WX    TMP DP  RH WIND       PRES   REMARKS
MUNCIE         CLEAR     71  69  93 CALM      29.98R FOG

$$

INZ060-061-067>069-081>083-085>088-291100-
SOUTHWEST INDIANA

CITY           SKY/WX    TMP DP  RH WIND       PRES   REMARKS
EVANSVILLE     PTCLDY    75  73  93 CALM      29.99R
HUNTINGBURG *+ CLEAR     73  70  88 CALM      29.99R
WASHINGTON +   MOCLDY    73  69  87 CALM      29.97S

$$

INZ062-063-066-070>080-084-089>092-291100-
SOUTH CENTRAL AND SOUTHEAST INDIANA

CITY           SKY/WX    TMP DP  RH WIND       PRES   REMARKS
BLOOMINGTON    MOCLDY    75  73  93 CALM      29.99R
MADISON *+       N/A     72  70  94 CALM      30.00S VSB 1/4

$$




USA.gov is the U.S. government's official web portal to all federal, state and local government web resources and services.